{"data":{"norad_id":53906,"intl_designator":"2022-119W","name":"STARLINK-5054","alt_names":[],"object_type":"PAYLOAD","status":"ACTIVE","operator":null,"country":"US","launch_date":"2022-09-24","launch_site_code":"AFETR","launch_vehicle":null,"mission":null,"orbit_class":"UNKNOWN","rcs_meters":null,"size_class":null,"mass_kg":null,"dimensions":null,"purposes":["comms"],"wikipedia_slug":null,"has_3d_model":false,"image_url":null,"decayed_at":null,"tle_current":{"epoch":"2026-09-20T00:03:58.324032Z","epoch_age_seconds":129523,"freshness":"FRESH","line1":"1 53906U 22119W   26263.00275838  .00000367  00000+0  41145-4 0  9994","line2":"2 53906  53.1582 160.8718 0001004  94.4826 265.6280 15.08835620221167","mean_motion":15.0883562,"eccentricity":0.0001004,"inclination_deg":53.1582,"raan_deg":160.8718,"arg_perigee_deg":94.4826,"mean_anomaly_deg":265.628,"bstar":4.1145e-5,"rev_number":22116,"period_min":95.437831723511,"perigee_km":539.06222036904,"apogee_km":540.45133343945,"semimajor_km":6917.8937769042,"source":"CELESTRAK","updated_at":"2026-09-21T09:00:33.032114Z"}}}